sat.trackr.live / text

‹ back to catalog

STARLINK-5996

NORAD 57227 · 2023-094K

PAYLOAD ACTIVE UNKNOWN

§ Identity

Operator
Country
US
Launch date
2023-07-07
Launch site
AFWTR
Launch vehicle
Mass (kg)
RCS (m²)

Purposes: comms

External: N2YO · Heavens-Above · Gunter

§ Orbital elements

Epoch: 2026-05-24T21:42:56.880000Z

Period
94.27 min
Inclination
43.0031°
Eccentricity
0.0001687
Mean motion
15.27567468 rev/d
Perigee alt
481.9 km
Apogee alt
484.2 km
Semi-major
6,861.2 km
B*
1.5818e-6
RAAN
323.5262°
Arg perigee
264.6902°
Mean anomaly
95.3757°
Rev number
15,873

§ Raw data

STARLINK-59961 57227U 23094K   26144.90482500 -.00000219  00000+0  15818-5 0  99962 57227  43.0031 323.5262 0001687 264.6902  95.3757 15.27567468158731

JSON: /api/v1/satellites/57227 · /tle

For live sub-satellite position, see the globe view (requires WebGL).

§ Visibility from observer

Set your observer location to see the next 7 days of passes ≥ 10°. The values pass through the URL so the page stays shareable.

No JS? Fill the form by hand. The geolocation button needs JavaScript.